Location: Heiligenberg
(48.5381°N, 7.3897°E)
Time: 20:25:10
(UTC+00:00)

Cosmos 2341 Rocket - Pass Details

Date: 26 May 2022
Orbit: 969 x 1003 km, 82.9° (Epoch: 02 July)

Event Time Altitude Azimuth Distance (km) Brightness Sun altitude
Rises 02:37:07 0° 349° (NNW) 3,735 7.6 -8.5°
Reaches altitude 10° 02:39:40 10° 347° (NNW) 2,784 6.9 -8.2°
Maximum altitude 02:46:01 71° 265° (W) 1,063 4.1 -7.5°
Drops below altitude 10° 02:52:21 10° 183° (S) 2,770 6.0 -6.7°
Sets 02:54:53 0° 181° (S) 3,714 6.6 -6.4°
